This demonstration page uses our WeatherBlox Daily Observations layout. Learn more.

Left ArrowRight Arrow

Hourly Observations for January 3, 2018

Temp ( °F °C ) Dew Point ( °F °C ) Humidity (%) Winds ( mph kmh ) Pressure ( in mb ) Visibility ( mi km ) Precip ( " mm )
12:15 am 00:15 Clear 12 -11 7 -14 79 79 Calm 30.45 1031 10 16.0934 0 0
12:35 am 00:35 Clear 10 -12 5 -15 79 79 Calm 30.45 1031 10 16.0934 0 0
12:55 am 00:55 Clear 10 -12 7 -14 85 85 Calm 30.42 1030 10 16.0934 0 0
1:15 am 01:15 Clear 9 -13 5 -15 85 85 Calm 30.45 1031 10 16.0934 0 0
1:35 am 01:35 Clear 9 -13 5 -15 85 85 Calm 30.42 1030 10 16.0934 0 0
1:55 am 01:55 Clear 9 -13 7 -14 92 92 NW 5 7 30.42 1030 10 16.0934 0 0
2:15 am 02:15 Clear 10 -12 5 -15 79 79 Calm 30.42 1030 10 16.0934 0 0
2:35 am 02:35 Clear 10 -12 5 -15 79 79 Calm 30.42 1030 10 16.0934 0 0
2:55 am 02:55 Clear 9 -13 5 -15 85 85 Calm 30.42 1030 10 16.0934 0 0
3:15 am 03:15 Clear 9 -13 5 -15 85 85 Calm 30.42 1030 10 16.0934 0 0
3:35 am 03:35 Clear 9 -13 5 -15 85 85 Calm 30.42 1030 10 16.0934 0 0
3:55 am 03:55 Clear 7 -14 5 -15 92 92 Calm 30.42 1030 10 16.0934 0 0
4:15 am 04:15 Clear 9 -13 3 -16 78 78 Calm 30.39 1029 10 16.0934 0 0
4:35 am 04:35 Clear 9 -13 5 -15 85 85 Calm 30.39 1029 10 16.0934 0 0
4:55 am 04:55 Clear 7 -14 3 -16 85 85 Calm 30.39 1029 10 16.0934 0 0
5:15 am 05:15 Clear 7 -14 3 -16 85 85 NW 3 6 30.39 1029 10 16.0934 0 0
5:35 am 05:35 Clear 9 -13 5 -15 85 85 Calm 30.39 1029 10 16.0934 0 0
5:55 am 05:55 Clear 5 -15 3 -16 92 92 NNW 3 6 30.39 1029 10 16.0934 0 0
6:15 am 06:15 Clear 7 -14 3 -16 85 85 Calm 30.39 1029 10 16.0934 0 0
6:35 am 06:35 Clear 7 -14 3 -16 85 85 Calm 30.39 1029 10 16.0934 0 0
6:55 am 06:55 Clear 7 -14 3 -16 85 85 Calm 30.39 1029 10 16.0934 0 0
7:15 am 07:15 Clear 5 -15 3 -16 92 92 Calm 30.39 1029 10 16.0934 0 0
7:35 am 07:35 Sunny 7 -14 3 -16 85 85 Calm 30.39 1029 10 16.0934 0 0
7:55 am 07:55 Sunny 7 -14 3 -16 85 85 Calm 30.39 1029 10 16.0934 0 0
8:15 am 08:15 Sunny 9 -13 5 -15 85 85 Calm 30.39 1029 10 16.0934 0 0
8:35 am 08:35 Sunny 10 -12 7 -14 85 85 Calm 30.39 1029 10 16.0934 0 0
8:55 am 08:55 Sunny 12 -11 9 -13 85 85 Calm 30.39 1029 10 16.0934 0 0
9:15 am 09:15 Sunny 18 -8 10 -12 73 73 Calm 30.39 1029 10 16.0934 0 0
9:35 am 09:35 Sunny 21 -6 10 -12 63 63 Calm 30.33 1027 10 16.0934 0 0
9:55 am 09:55 Sunny 21 -6 10 -12 63 63 Calm 30.33 1027 10 16.0934 0 0
10:15 am 10:15 Sunny 23 -5 9 -13 54 54 Calm 30.33 1027 10 16.0934 0 0
10:35 am 10:35 Sunny 23 -5 10 -12 58 58 Calm 30.33 1027 10 16.0934 0 0
10:55 am 10:55 Sunny 25 -4 9 -13 50 50 SE 3 6 30.33 1027 10 16.0934 0 0
11:15 am 11:15 Sunny 25 -4 10 -12 54 54 Calm 30.3 1026 10 16.0934 0 0
11:35 am 11:35 Sunny 27 -3 10 -12 50 50 SE 3 6 30.27 1025 10 16.0934 0 0
11:55 am 11:55 Sunny 27 -3 10 -12 50 50 Calm 30.27 1025 10 16.0934 0 0
12:15 pm 12:15 Sunny 28 -2 10 -12 47 47 ESE 3 6 30.24 1024 10 16.0934 0 0
12:35 pm 12:35 Sunny 28 -2 12 -11 51 51 Calm 30.24 1024 10 16.0934 0 0
12:55 pm 12:55 Sunny 28 -2 12 -11 51 51 Calm 30.21 1023 10 16.0934 0 0
1:15 pm 13:15 Sunny 30 -1 12 -11 47 47 Calm 30.21 1023 10 16.0934 0 0
1:35 pm 13:35 Sunny 30 -1 12 -11 47 47 Calm 30.18 1022 10 16.0934 0 0
1:55 pm 13:55 Sunny 32 0 10 -12 40 40 E 5 7 30.18 1022 10 16.0934 0 0
2:15 pm 14:15 Sunny 32 0 9 -13 37 37 SSE 6 9 30.18 1022 10 16.0934 0 0
2:35 pm 14:35 Partly Cloudy 32 0 9 -13 37 37 S 3 6 30.15 1021 10 16.0934 0 0
2:55 pm 14:55 Mostly Cloudy 32 0 9 -13 37 37 SSE 7 11 30.18 1022 10 16.0934 0 0
3:15 pm 15:15 Cloudy 32 0 9 -13 37 37 S 8 13 30.18 1022 10 16.0934 0 0
3:35 pm 15:35 Partly Cloudy 32 0 10 -12 40 40 S 6 9 30.18 1022 10 16.0934 0 0
3:55 pm 15:55 Partly Cloudy 32 0 10 -12 40 40 S 5 7 30.18 1022 10 16.0934 0 0
4:15 pm 16:15 Cloudy 32 0 10 -12 40 40 Calm 30.15 1021 10 16.0934 0 0
4:35 pm 16:35 Cloudy 32 0 10 -12 40 40 Calm 30.15 1021 10 16.0934 0 0
4:55 pm 16:55 Cloudy 32 0 10 -12 40 40 Calm 30.12 1020 10 16.0934 0 0
5:15 pm 17:15 Cloudy 32 0 10 -12 40 40 NNW 5 7 30.09 1019 10 16.0934 0 0
5:35 pm 17:35 Cloudy 30 -1 10 -12 43 43 Calm 30.09 1019 10 16.0934 0 0
5:55 pm 17:55 Cloudy 30 -1 10 -12 43 43 Calm 30.09 1019 10 16.0934 0 0
6:15 pm 18:15 Cloudy 32 0 10 -12 40 40 Calm 30.12 1020 10 16.0934 0 0
6:35 pm 18:35 Cloudy 30 -1 12 -11 47 47 Calm 30.12 1020 10 16.0934 0 0
6:55 pm 18:55 Cloudy 28 -2 16 -9 59 59 Calm 30.12 1020 10 16.0934 0 0
7:15 pm 19:15 Cloudy 28 -2 18 -8 64 64 Calm 30.12 1020 10 16.0934 0 0
7:35 pm 19:35 Cloudy 30 -1 14 -10 51 51 Calm 30.09 1019 10 16.0934 0 0
7:55 pm 19:55 Cloudy 30 -1 16 -9 55 55 NNW 5 7 30.09 1019 10 16.0934 0 0
8:15 pm 20:15 Cloudy 30 -1 14 -10 51 51 NNE 3 6 30.09 1019 10 16.0934 0 0
8:35 pm 20:35 Cloudy 30 -1 12 -11 47 47 ENE 3 6 30.09 1019 10 16.0934 0 0
8:55 pm 20:55 Cloudy 30 -1 12 -11 47 47 NE 3 6 30.06 1018 10 16.0934 0 0
9:15 pm 21:15 Cloudy 30 -1 12 -11 47 47 undefined N/A 30.06 1018 10 16.0934 0 0
9:35 pm 21:35 Cloudy 30 -1 12 -11 47 47 NE 3 6 30.03 1017 10 16.0934 0 0
9:55 pm 21:55 Cloudy 30 -1 14 -10 51 51 NE 3 6 30.03 1017 10 16.0934 0 0
10:15 pm 22:15 Cloudy 30 -1 16 -9 55 55 NE 3 6 30.03 1017 10 16.0934 0 0
10:35 pm 22:35 Cloudy 30 -1 18 -8 59 59 ENE 3 6 30.03 1017 10 16.0934 0 0
10:55 pm 22:55 Cloudy 30 -1 18 -8 59 59 NNE 3 6 30 1016 10 16.0934 0 0
11:15 pm 23:15 Cloudy 28 -2 18 -8 64 64 NNE 5 7 30 1016 10 16.0934 0 0
11:35 pm 23:35 Cloudy 28 -2 18 -8 64 64 NNE 7 11 30 1016 10 16.0934 0 0
11:55 pm 23:55 Cloudy 28 -2 16 -9 59 59 NE 7 11 29.97 1015 10 16.0934 0 0

Powered by AerisWeather